Location: Most
(50.5133°N, 13.6207°E)
Time: 18:35:21
(UTC+02:00)

ISS - Pass Details

Date: 21 May 2019
Orbit: 407 x 410 km, 51.6° (Epoch: 23 May)

Event Time Altitude Azimuth Distance (km) Brightness Sun altitude
Rises 23:32:06 0° 268° (W) 2,334 0.3 -16.5°
Reaches altitude 10° 23:34:12 10° 271° (W) 1,473 -0.7 -16.6°
Maximum altitude 23:37:30 71° 357° (N) 436 -3.6 -16.8°
Drops below altitude 10° 23:40:48 10° 82° (E) 1,476 -1.1 -17.0°
Enters shadow 23:41:33 - 83° (E) 1,786 -0.7 -17.0°
